星链-3419 (STARLINK-3419 )

导读

STARLINK-3419是美国于2022年2月3日发射的SpaceX星链卫星,隶属于星链互联网卫星星座,该星座旨在为全球提供高速低延迟卫星互联网服务。星链项目持续批量发射卫星搭建低轨卫星网络,这颗卫星是星链组网过程中的组成部分,参与全球卫星互联网的覆盖建设。

基本信息
目录编号:
51463
目录名称:
STARLINK-3419
国际标识:
2022-010H
轨道中心:
EARTH
卫星名称:
星链-3419
卫星全名:
星链-3419 (STARLINK-3419 )
卫星状态:
在轨 (已飞行1674 天)
发射日期:
2022-02-03 UTC
国别 :
美国 (US)
星等 :
--
轨道信息
数据来源 国际轨道数据
星历时间: 2026-09-03T14:16:46+0800
1天前
查看轨道信息
半长轴: 6848.846km
偏心率: 0.0001254
轨道倾角: 53.159°
近地点辐角 85.343°
升交点赤经 189.476°
平近点角 274.771°
近地点: 469.85km
远地点: 471.568km
周期: 94.013分钟
每日圈数: 15.317107
详细信息
固有亮度:
5
最大亮度:
2.5
卫星平台:
Starlink v1.5
覆盖范围:
全球
运营商:
太空探索技术公司
运营商所在国:
美国
制造商(研发单位):
太空探索技术公司
制造商所在国:
美国
使用方式:
暂无
卫星简介
星链(Starlink)计划是由太空探索技术公司(SpaceX)提出的一个巨型低轨卫星互联网星座项目,计划在2019年至2024年间在太空搭建由约1.2万颗卫星组成的“星链”网络,其中1584颗将部署在地球上空550千米处的近地轨道,并从2020年开始工作。该卫星仍在工作。
2D轨道图
3D轨道图
轨道高度分析图
轨道倾角分析图
轨道综合分析图
查看轨道综合分析图
交会数据列表
事件ID 空间交会对象 最接近时刻(TCA) 交会距离 交会风险概率(CRP) 交会风险指数(CRI) 操作
CDM_260905-222101-921005-146321
2026-09-05T
22:21:53+0000
2.871 km
极远距离
1.366313E-6 低风险 0.38
CDM_260906-134901-258605-146321
SL-3 R/B (12586)
2026-09-06T
13:49:10+0000
2.935 km
极远距离
1.29316E-6 低风险 0.37
CDM_260905-115605-146306-566421
2026-09-05T
11:56:28+0000
2.941 km
极远距离
1.247495E-6 低风险 0.37